User: anonymous   Login
Location: Passau
(48.5721°N, 13.4363°E)
Time: 18:30:34
(UTC+01:00)
Language:

ISS - Orbit

View from above orbital plane
View from above orbital plane
View from above satellite
View from above satellite

Ground track
Ground track

The orbit data is extracted from the following two-line orbital elements,

1 25544U 98067A   17322.55125456  .00016717  00000-0  10270-3 0  9038
2 25544  51.6403 348.7998 0004214 127.2774 232.8764 15.54180145  5753
Epoch (UTC): 18 November 2017 13:13:48
Eccentricity: 0.0004214
inclination: 51.6403°
perigee height: 401 km
apogee height: 407 km
right ascension of ascending node: 348.7998°
argument of perigee: 127.2774°
revolutions per day: 15.54180145
mean anomaly at epoch: 232.8764°
orbit number at epoch: 575

The dashed part of the orbit path shows where the satellite is in the earth's shadow,  

DLR